Year,Month,Day,Hour,Minute,Value (Times are PST for temperature in C)
2016,08,12,10,26,24.90
2016,08,12,10,27,24.90
2016,08,12,10,28,24.90
2016,08,12,10,29,24.80
2016,08,12,10,30,24.70
2016,08,12,10,31,24.60
2016,08,12,10,32,24.50
2016,08,12,10,33,24.40
2016,08,12,10,34,24.40
2016,08,12,10,35,24.30
2016,08,12,10,36,24.30
2016,08,12,10,37,24.40
2016,08,12,10,38,24.50
2016,08,12,10,39,24.60
2016,08,12,10,40,24.60
2016,08,12,10,41,24.60
2016,08,12,10,42,24.60
2016,08,12,10,43,24.60
2016,08,12,10,44,24.60
2016,08,12,10,45,24.70
2016,08,12,10,46,24.70
2016,08,12,10,47,24.90
2016,08,12,10,48,24.90
2016,08,12,10,49,25.00
2016,08,12,10,50,25.00
2016,08,12,10,51,25.10
2016,08,12,10,52,25.20
2016,08,12,10,53,25.20
2016,08,12,10,54,25.30
2016,08,12,10,55,25.30
2016,08,12,10,56,25.30
2016,08,12,10,57,25.40
2016,08,12,10,58,25.60
2016,08,12,10,59,25.70
2016,08,12,11,00,25.80
2016,08,12,11,01,25.90
2016,08,12,11,02,26.00
2016,08,12,11,03,26.00
2016,08,12,11,04,26.10
2016,08,12,11,05,26.10
2016,08,12,11,06,26.10
2016,08,12,11,07,26.00
2016,08,12,11,08,25.90
2016,08,12,11,09,25.90
2016,08,12,11,10,25.90
2016,08,12,11,11,25.90
2016,08,12,11,12,25.90
2016,08,12,11,13,25.90
2016,08,12,11,14,25.90
2016,08,12,11,15,25.90
2016,08,12,11,16,25.90
2016,08,12,11,17,25.90
2016,08,12,11,18,25.80
2016,08,12,11,19,25.70
2016,08,12,11,20,25.70
2016,08,12,11,21,25.70
2016,08,12,11,22,25.70
2016,08,12,11,23,25.80
2016,08,12,11,24,25.70
2016,08,12,11,25,25.60
2016,08,12,11,26,25.50
2016,08,12,11,27,25.50
2016,08,12,11,28,25.40
2016,08,12,11,29,25.40
2016,08,12,11,30,25.40
2016,08,12,11,31,25.40
2016,08,12,11,32,25.50
2016,08,12,11,33,25.60
2016,08,12,11,34,25.60
2016,08,12,11,35,25.60
2016,08,12,11,36,25.60
2016,08,12,11,37,25.60
2016,08,12,11,38,25.60
2016,08,12,11,39,25.70
2016,08,12,11,40,25.70
2016,08,12,11,41,25.80
2016,08,12,11,42,25.80
2016,08,12,11,43,25.80
2016,08,12,11,44,25.80
2016,08,12,11,45,25.80
2016,08,12,11,46,25.70
2016,08,12,11,47,25.70
2016,08,12,11,48,25.70
2016,08,12,11,49,25.70
2016,08,12,11,50,25.80
2016,08,12,11,51,25.90
2016,08,12,11,52,25.90
2016,08,12,11,53,25.90
2016,08,12,11,54,25.90
2016,08,12,11,55,26.00
2016,08,12,11,56,26.00
2016,08,12,11,57,26.10
2016,08,12,11,58,26.10
2016,08,12,11,59,26.20
2016,08,12,12,00,26.20
2016,08,12,12,01,26.10
2016,08,12,12,02,26.10
2016,08,12,12,03,26.00
2016,08,12,12,04,26.00
2016,08,12,12,05,25.90
2016,08,12,12,06,25.90
2016,08,12,12,07,25.90
2016,08,12,12,08,25.90
2016,08,12,12,09,25.90
2016,08,12,12,10,26.00
2016,08,12,12,11,26.10
2016,08,12,12,12,26.10
2016,08,12,12,13,26.00
2016,08,12,12,14,26.00
2016,08,12,12,15,26.00
2016,08,12,12,16,26.10
2016,08,12,12,17,26.10
2016,08,12,12,18,26.20
2016,08,12,12,19,26.20
2016,08,12,12,20,26.30
2016,08,12,12,21,26.40
2016,08,12,12,22,26.30
2016,08,12,12,23,26.30
2016,08,12,12,24,26.40
2016,08,12,12,25,26.50
2016,08,12,12,26,26.50
2016,08,12,12,27,26.50
2016,08,12,12,28,26.50
2016,08,12,12,29,26.60
2016,08,12,12,30,26.70
2016,08,12,12,31,26.70
2016,08,12,12,32,26.80
2016,08,12,12,33,26.80
2016,08,12,12,34,26.70
2016,08,12,12,35,26.70
2016,08,12,12,36,26.70
2016,08,12,12,37,26.70
2016,08,12,12,38,26.60
2016,08,12,12,39,26.60
2016,08,12,12,40,26.60
2016,08,12,12,41,26.60
2016,08,12,12,42,26.60
2016,08,12,12,43,26.50
2016,08,12,12,44,26.40
2016,08,12,12,45,26.40
2016,08,12,12,46,26.50
2016,08,12,12,47,26.50
2016,08,12,12,48,26.50
2016,08,12,12,49,26.50
2016,08,12,12,50,26.50
2016,08,12,12,51,26.50
2016,08,12,12,52,26.50
2016,08,12,12,53,26.40
2016,08,12,12,54,26.40
2016,08,12,12,55,26.30
2016,08,12,12,56,26.30
2016,08,12,12,57,26.40
2016,08,12,12,58,26.40
2016,08,12,12,59,26.50
2016,08,12,13,00,26.60
2016,08,12,13,01,26.60
2016,08,12,13,02,26.50
2016,08,12,13,03,26.40
2016,08,12,13,04,26.40
2016,08,12,13,05,26.40
2016,08,12,13,06,26.40
2016,08,12,13,07,26.40
2016,08,12,13,08,26.30
2016,08,12,13,09,26.30
2016,08,12,13,10,26.30
2016,08,12,13,11,26.40
2016,08,12,13,12,26.50
2016,08,12,13,13,26.60
2016,08,12,13,14,26.60
2016,08,12,13,15,26.70
2016,08,12,13,16,26.70
2016,08,12,13,17,26.70
2016,08,12,13,18,26.70
2016,08,12,13,19,26.70
2016,08,12,13,20,26.70
2016,08,12,13,21,26.60
2016,08,12,13,22,26.70
2016,08,12,13,23,26.70
2016,08,12,13,24,26.70
2016,08,12,13,25,26.70
2016,08,12,13,26,26.60
2016,08,12,13,27,26.60
2016,08,12,13,28,26.60
2016,08,12,13,29,26.60
2016,08,12,13,30,26.60
2016,08,12,13,31,26.70
2016,08,12,13,32,26.80
2016,08,12,13,33,26.80
2016,08,12,13,34,26.90
2016,08,12,13,35,26.90
2016,08,12,13,36,26.90
2016,08,12,13,37,26.90
2016,08,12,13,38,26.90
2016,08,12,13,39,27.00
2016,08,12,13,40,27.00
2016,08,12,13,41,27.10
2016,08,12,13,42,27.10
2016,08,12,13,43,27.10
2016,08,12,13,44,27.10
2016,08,12,13,45,27.00
2016,08,12,13,46,27.10
2016,08,12,13,47,27.00
2016,08,12,13,48,27.10
2016,08,12,13,49,27.10
2016,08,12,13,50,27.10
2016,08,12,13,51,27.20
2016,08,12,13,52,27.20
2016,08,12,13,53,27.20
2016,08,12,13,54,27.30
2016,08,12,13,55,27.30
2016,08,12,13,56,27.20
2016,08,12,13,57,27.20
2016,08,12,13,58,27.10
2016,08,12,13,59,27.10
2016,08,12,14,00,27.10
2016,08,12,14,01,27.10
2016,08,12,14,02,27.10
2016,08,12,14,03,27.10
2016,08,12,14,04,27.10
2016,08,12,14,05,27.20
2016,08,12,14,06,27.20
2016,08,12,14,07,27.10
2016,08,12,14,08,27.10
2016,08,12,14,09,27.10
2016,08,12,14,10,27.10
2016,08,12,14,11,27.20
2016,08,12,14,12,27.20
2016,08,12,14,13,27.20
2016,08,12,14,14,27.10
2016,08,12,14,15,27.00
2016,08,12,14,16,26.90
2016,08,12,14,17,26.90
2016,08,12,14,18,26.90
2016,08,12,14,19,26.80
2016,08,12,14,20,26.80
2016,08,12,14,21,26.80
2016,08,12,14,22,26.70
2016,08,12,14,23,26.60
2016,08,12,14,24,26.60
2016,08,12,14,25,26.60
2016,08,12,14,26,26.60
2016,08,12,14,27,26.60
2016,08,12,14,28,26.60
2016,08,12,14,29,26.60
2016,08,12,14,30,26.50
2016,08,12,14,31,26.50
2016,08,12,14,32,26.50
2016,08,12,14,33,26.60
2016,08,12,14,34,26.70
2016,08,12,14,35,26.70
2016,08,12,14,36,26.70
2016,08,12,14,37,26.90
2016,08,12,14,38,27.00
2016,08,12,14,39,27.10
2016,08,12,14,40,27.30
2016,08,12,14,41,27.40
2016,08,12,14,42,27.40
2016,08,12,14,43,27.50
2016,08,12,14,44,27.60
2016,08,12,14,45,27.70
2016,08,12,14,46,27.70
2016,08,12,14,47,27.70
2016,08,12,14,48,27.50
2016,08,12,14,49,27.40
2016,08,12,14,50,27.30
2016,08,12,14,51,27.30
2016,08,12,14,52,27.30
2016,08,12,14,53,27.30
2016,08,12,14,54,27.30
2016,08,12,14,55,27.30
2016,08,12,14,56,27.30
2016,08,12,14,57,27.30
2016,08,12,14,58,27.40
2016,08,12,14,59,27.40
2016,08,12,15,00,27.40
2016,08,12,15,01,27.40
2016,08,12,15,02,27.50
2016,08,12,15,03,27.60
2016,08,12,15,04,27.60
2016,08,12,15,05,27.60
2016,08,12,15,06,27.60
2016,08,12,15,07,27.60
2016,08,12,15,08,27.60
2016,08,12,15,09,27.50
2016,08,12,15,10,27.40
2016,08,12,15,11,27.50
2016,08,12,15,12,27.60
2016,08,12,15,13,27.70
2016,08,12,15,14,27.80
2016,08,12,15,15,27.80
2016,08,12,15,16,27.90
2016,08,12,15,17,27.90
2016,08,12,15,18,27.90
2016,08,12,15,19,27.90
2016,08,12,15,20,27.90
2016,08,12,15,21,27.90
2016,08,12,15,22,27.90
2016,08,12,15,23,27.90
2016,08,12,15,24,27.80
2016,08,12,15,25,27.80
2016,08,12,15,26,27.80
2016,08,12,15,27,27.90
2016,08,12,15,28,28.00
2016,08,12,15,29,28.10
2016,08,12,15,30,28.10
2016,08,12,15,31,28.00
2016,08,12,15,32,28.00
2016,08,12,15,33,28.00
2016,08,12,15,34,27.90
2016,08,12,15,35,27.90
2016,08,12,15,36,27.90
2016,08,12,15,37,27.80
2016,08,12,15,38,27.80
2016,08,12,15,39,27.80
2016,08,12,15,40,27.80
2016,08,12,15,41,27.80
2016,08,12,15,42,27.70
2016,08,12,15,43,27.80
2016,08,12,15,44,27.80
2016,08,12,15,45,27.80
2016,08,12,15,46,27.90
2016,08,12,15,47,27.90
2016,08,12,15,48,27.90
2016,08,12,15,49,28.00
2016,08,12,15,50,28.00
2016,08,12,15,51,28.00
2016,08,12,15,52,28.00
2016,08,12,15,53,28.00
2016,08,12,15,54,28.10
2016,08,12,15,55,28.00
2016,08,12,15,56,28.00
2016,08,12,15,57,28.00
2016,08,12,15,58,28.00
2016,08,12,15,59,28.00
2016,08,12,16,00,28.10
2016,08,12,16,01,28.10
2016,08,12,16,02,28.10
2016,08,12,16,03,28.10
2016,08,12,16,04,28.10
2016,08,12,16,05,28.10
2016,08,12,16,06,28.10
2016,08,12,16,07,28.00
2016,08,12,16,08,28.10
2016,08,12,16,09,28.10
2016,08,12,16,10,28.00
2016,08,12,16,11,28.00
2016,08,12,16,12,28.00
2016,08,12,16,13,28.10
2016,08,12,16,14,28.10
2016,08,12,16,15,28.20
2016,08,12,16,16,28.20
2016,08,12,16,17,28.20
2016,08,12,16,18,28.20
2016,08,12,16,19,28.20
2016,08,12,16,20,28.10
2016,08,12,16,21,28.00
2016,08,12,16,22,27.90
2016,08,12,16,23,27.90
2016,08,12,16,24,27.80
2016,08,12,16,25,27.80
2016,08,12,16,26,27.80
2016,08,12,16,27,27.90
2016,08,12,16,28,27.90
2016,08,12,16,29,27.90
2016,08,12,16,30,27.90
2016,08,12,16,31,28.00
2016,08,12,16,32,28.00
2016,08,12,16,33,28.00
2016,08,12,16,34,28.10
2016,08,12,16,35,28.10
2016,08,12,16,36,28.20
2016,08,12,16,37,28.10
2016,08,12,16,38,28.10
2016,08,12,16,39,28.00
2016,08,12,16,40,28.00
2016,08,12,16,41,28.00
2016,08,12,16,42,28.10
2016,08,12,16,43,28.10
2016,08,12,16,44,28.10
2016,08,12,16,45,28.10
2016,08,12,16,46,28.10
2016,08,12,16,47,28.20
2016,08,12,16,48,28.20
2016,08,12,16,49,28.30
2016,08,12,16,50,28.30
2016,08,12,16,51,28.30
2016,08,12,16,52,28.30
2016,08,12,16,53,28.30
2016,08,12,16,54,28.30
2016,08,12,16,55,28.20
2016,08,12,16,56,28.20
2016,08,12,16,57,28.20
2016,08,12,16,58,28.30
2016,08,12,16,59,28.30
2016,08,12,17,00,28.40
2016,08,12,17,01,28.40
2016,08,12,17,02,28.50
2016,08,12,17,03,28.50
2016,08,12,17,04,28.60
2016,08,12,17,05,28.60
2016,08,12,17,06,28.70
2016,08,12,17,07,28.70
2016,08,12,17,08,28.70
2016,08,12,17,09,28.70
2016,08,12,17,10,28.80
2016,08,12,17,11,28.80
2016,08,12,17,12,28.80
2016,08,12,17,13,28.90
2016,08,12,17,14,28.90
2016,08,12,17,15,29.00
2016,08,12,17,16,29.10
2016,08,12,17,17,29.10
2016,08,12,17,18,29.10
2016,08,12,17,19,29.20
2016,08,12,17,20,29.10
2016,08,12,17,21,29.00
2016,08,12,17,22,28.90
2016,08,12,17,23,28.80
2016,08,12,17,24,28.70
2016,08,12,17,25,28.70
2016,08,12,17,26,28.70
2016,08,12,17,27,28.70
2016,08,12,17,28,28.70
2016,08,12,17,29,28.70
2016,08,12,17,30,28.70
2016,08,12,17,31,28.70
2016,08,12,17,32,28.70
2016,08,12,17,33,28.70
2016,08,12,17,34,28.70
2016,08,12,17,35,28.70
2016,08,12,17,36,28.60
2016,08,12,17,37,28.60
2016,08,12,17,38,28.70
2016,08,12,17,39,28.70
2016,08,12,17,40,28.70
2016,08,12,17,41,28.80
2016,08,12,17,42,28.80
2016,08,12,17,43,28.80
2016,08,12,17,44,28.90
2016,08,12,17,45,28.90
2016,08,12,17,46,29.00
2016,08,12,17,47,28.90
2016,08,12,17,48,28.90
2016,08,12,17,49,28.90
2016,08,12,17,50,28.90
2016,08,12,17,51,28.80
2016,08,12,17,52,28.80
2016,08,12,17,53,28.80
2016,08,12,17,54,28.80
2016,08,12,17,55,28.80
2016,08,12,17,56,28.80
2016,08,12,17,57,28.70
2016,08,12,17,58,28.70
2016,08,12,17,59,28.70
2016,08,12,18,00,28.70
2016,08,12,18,01,28.70
2016,08,12,18,02,28.70
2016,08,12,18,03,28.70
2016,08,12,18,04,28.70
2016,08,12,18,05,28.70
2016,08,12,18,06,28.70
2016,08,12,18,07,28.70
2016,08,12,18,08,28.70
2016,08,12,18,09,28.70
2016,08,12,18,10,28.70
2016,08,12,18,11,28.70
2016,08,12,18,12,28.70
2016,08,12,18,13,28.80
2016,08,12,18,14,28.80
2016,08,12,18,15,28.80
2016,08,12,18,16,28.80
2016,08,12,18,17,28.80
2016,08,12,18,18,28.80
2016,08,12,18,19,28.80
2016,08,12,18,20,28.80
2016,08,12,18,21,28.80
2016,08,12,18,22,28.80
2016,08,12,18,23,28.80
2016,08,12,18,24,28.80
2016,08,12,18,25,28.80
2016,08,12,18,26,28.80
2016,08,12,18,27,28.70
2016,08,12,18,28,28.70
2016,08,12,18,29,28.70
2016,08,12,18,30,28.60
2016,08,12,18,31,28.60
2016,08,12,18,32,28.60
2016,08,12,18,33,28.60
2016,08,12,18,34,28.50
2016,08,12,18,35,28.50
2016,08,12,18,36,28.60
2016,08,12,18,37,28.60
2016,08,12,18,38,28.60
2016,08,12,18,39,28.60
2016,08,12,18,40,28.60
2016,08,12,18,41,28.60
2016,08,12,18,42,28.60
2016,08,12,18,43,28.60
2016,08,12,18,44,28.60
2016,08,12,18,45,28.60
2016,08,12,18,46,28.60
2016,08,12,18,47,28.60
2016,08,12,18,48,28.60
2016,08,12,18,49,28.60
2016,08,12,18,50,28.60
2016,08,12,18,51,28.60
2016,08,12,18,52,28.60
2016,08,12,18,53,28.60
2016,08,12,18,54,28.60
2016,08,12,18,55,28.60
2016,08,12,18,56,28.60
2016,08,12,18,57,28.60
